Location: Newark
(43.0000°N, 1.6781°W)
Time: 22:51:47
(UTC+00:00)

deb Explorer IX - Pass Details

Date: 26 April 2021
Orbit: 541 x 1098 km, 38.8° (Epoch: 11 May)

Event Time Altitude Azimuth Distance (km) Brightness Sun altitude
Rises 03:31:14 0° 208° (SSW) 2,757 - -16.3°
Reaches altitude 10° 03:34:29 10° 182° (S) 1,813 - -15.8°
Exits shadow 03:35:01 12° 175° (S) 1,711 ? -15.8°
Maximum altitude 03:36:35 14° 151° (SSE) 1,568 ? -15.5°
Drops below altitude 10° 03:38:42 10° 119° (ESE) 1,793 ? -15.2°
Sets 03:41:52 0° 93° (E) 2,704 ? -14.7°
